• In India
  • List of Countries
  • For 7 days
  • Water Temperature
  • Satellite Maps
  • Weather Map
  • Weather Widgets
  • user-avatar
    Login

    Hourly Weather Golub Dobrzyń

    Today, 25 April, Wednesday

    Time Temperature Precipitation Wind Pressure Humidity
    00:00 +9°C° 0 mm 3 mps 751 mmHg 92%
    01:00 +9°C° 0 mm 3 mps 751 mmHg 93%
    02:00 +9°C° 0 mm 3 mps 750 mmHg 94%
    03:00 +8°C° 0 mm 3 mps 750 mmHg 95%
    04:00 +8°C° 0 mm 3 mps 750 mmHg 96%
    05:00 +9°C° 0.4 mm 3 mps 749 mmHg 94%
    06:00 +10°C° 0.4 mm 3 mps 749 mmHg 92%
    07:00 +10°C° 0 mm 4 mps 748 mmHg 91%
    08:00 +11°C° 0.6 mm 4 mps 748 mmHg 87%
    09:00 +13°C° 0.6 mm 5 mps 747 mmHg 84%
    10:00 +14°C° 0.6 mm 5 mps 746 mmHg 80%
    11:00 +15°C° 0.5 mm 6 mps 746 mmHg 78%
    12:00 +15°C° 0.5 mm 6 mps 745 mmHg 75%
    13:00 +16°C° 0.5 mm 7 mps 745 mmHg 73%
    14:00 +16°C° 0.6 mm 7 mps 745 mmHg 73%
    15:00 +16°C° 0.6 mm 7 mps 744 mmHg 73%
    16:00 +16°C° 0.6 mm 8 mps 744 mmHg 73%
    17:00 +15°C° 0.2 mm 7 mps 744 mmHg 76%
    18:00 +13°C° 0.2 mm 6 mps 745 mmHg 79%
    19:00 +12°C° 0.2 mm 5 mps 745 mmHg 82%
    20:00 +10°C° 0 mm 6 mps 746 mmHg 83%
    21:00 +8°C° 0 mm 6 mps 747 mmHg 83%
    22:00 +7°C° 0 mm 6 mps 748 mmHg 84%
    23:00 +6°C° 0 mm 5 mps 748 mmHg 85%

    Tomorrow, 26 April, Thursday

    Time Temperature Precipitation Wind Pressure Humidity
    00:00 +5°C° 0 mm 4 mps 749 mmHg 87%
    01:00 +5°C° 0 mm 4 mps 749 mmHg 88%
    02:00 +4°C° 0 mm 4 mps 750 mmHg 90%
    03:00 +4°C° 0 mm 4 mps 750 mmHg 91%
    04:00 +4°C° 0 mm 4 mps 750 mmHg 92%
    05:00 +5°C° 0 mm 4 mps 750 mmHg 88%
    06:00 +6°C° 0 mm 5 mps 750 mmHg 83%
    07:00 +8°C° 0 mm 5 mps 751 mmHg 79%
    08:00 +9°C° 0.1 mm 5 mps 751 mmHg 74%
    09:00 +10°C° 0.1 mm 6 mps 750 mmHg 69%
    10:00 +11°C° 0.1 mm 6 mps 750 mmHg 64%
    11:00 +13°C° 0.3 mm 6 mps 750 mmHg 61%
    12:00 +13°C° 0.3 mm 5 mps 750 mmHg 59%
    13:00 +14°C° 0.3 mm 5 mps 750 mmHg 57%
    14:00 +13°C° 0.6 mm 5 mps 750 mmHg 62%
    15:00 +12°C° 0.6 mm 5 mps 750 mmHg 67%
    16:00 +12°C° 0.6 mm 5 mps 750 mmHg 72%
    17:00 +10°C° 0.4 mm 5 mps 750 mmHg 75%
    18:00 +10°C° 0.4 mm 4 mps 751 mmHg 79%
    19:00 +8°C° 0.4 mm 4 mps 751 mmHg 83%
    20:00 +7°C° 0.1 mm 4 mps 751 mmHg 86%
    21:00 +6°C° 0.1 mm 4 mps 752 mmHg 89%
    22:00 +6°C° 0.1 mm 4 mps 752 mmHg 92%
    23:00 +5°C° 0 mm 4 mps 752 mmHg 93%

    Day after tomorrow, 27 April, Friday

    Time Temperature Precipitation Wind Pressure Humidity
    00:00 +5°C° 0 mm 4 mps 753 mmHg 93%
    01:00 +5°C° 0 mm 4 mps 753 mmHg 94%
    02:00 +4°C° 0 mm 3 mps 753 mmHg 94%
    03:00 +4°C° 0 mm 3 mps 753 mmHg 95%
    04:00 +4°C° 0 mm 3 mps 753 mmHg 96%
    05:00 +5°C° 0 mm 3 mps 754 mmHg 91%
    06:00 +6°C° 0 mm 4 mps 754 mmHg 87%
    07:00 +7°C° 0 mm 4 mps 754 mmHg 82%
    08:00 +8°C° 0 mm 4 mps 755 mmHg 74%
    09:00 +10°C° 0 mm 4 mps 755 mmHg 66%
    10:00 +12°C° 0 mm 5 mps 755 mmHg 58%
    11:00 +12°C° 0 mm 4 mps 755 mmHg 54%
    12:00 +13°C° 0 mm 4 mps 755 mmHg 51%
    13:00 +14°C° 0 mm 4 mps 755 mmHg 47%
    14:00 +14°C° 0 mm 4 mps 755 mmHg 48%
    15:00 +14°C° 0 mm 3 mps 754 mmHg 48%
    16:00 +14°C° 0 mm 3 mps 754 mmHg 49%
    17:00 +13°C° 0 mm 3 mps 754 mmHg 54%
    18:00 +13°C° 0 mm 2 mps 754 mmHg 59%
    19:00 +11°C° 0 mm 1 mps 753 mmHg 64%
    20:00 +10°C° 0 mm 2 mps 753 mmHg 65%
    21:00 +9°C° 0 mm 2 mps 753 mmHg 66%
    22:00 +9°C° 0 mm 3 mps 753 mmHg 67%
    23:00 +9°C° 0 mm 3 mps 753 mmHg 66%

    28 April, Saturday

    Time Temperature Precipitation Wind Pressure Humidity
    00:00 +8°C° 0 mm 4 mps 753 mmHg 66%
    01:00 +7°C° 0 mm 4 mps 752 mmHg 66%
    02:00 +7°C° 0 mm 4 mps 752 mmHg 67%
    03:00 +7°C° 0 mm 4 mps 751 mmHg 69%
    04:00 +7°C° 0 mm 4 mps 751 mmHg 70%
    05:00 +8°C° 0 mm 5 mps 751 mmHg 70%
    06:00 +9°C° 0 mm 5 mps 750 mmHg 70%
    07:00 +10°C° 0 mm 5 mps 750 mmHg 70%
    08:00 +13°C° 0 mm 5 mps 750 mmHg 68%
    09:00 +15°C° 0 mm 5 mps 750 mmHg 65%
    10:00 +17°C° 0 mm 6 mps 750 mmHg 63%
    11:00 +19°C° 0 mm 6 mps 750 mmHg 58%
    12:00 +20°C° 0 mm 7 mps 750 mmHg 53%
    13:00 +21°C° 0 mm 7 mps 750 mmHg 48%
    14:00 +20°C° 0 mm 7 mps 751 mmHg 50%
    15:00 +19°C° 0 mm 6 mps 751 mmHg 53%
    16:00 +17°C° 0 mm 6 mps 751 mmHg 55%
    17:00 +16°C° 0 mm 5 mps 752 mmHg 61%
    18:00 +14°C° 0 mm 4 mps 752 mmHg 67%
    19:00 +12°C° 0 mm 3 mps 752 mmHg 73%
    20:00 +12°C° 0 mm 3 mps 753 mmHg 76%
    21:00 +11°C° 0 mm 3 mps 753 mmHg 78%
    22:00 +10°C° 0 mm 2 mps 754 mmHg 81%
    23:00 +9°C° 0 mm 2 mps 754 mmHg 84%

    29 April, Sunday

    Time Temperature Precipitation Wind Pressure Humidity
    00:00 +8°C° 0 mm 2 mps 755 mmHg 88%
    01:00 +8°C° 0 mm 2 mps 755 mmHg 91%
    02:00 +8°C° 0 mm 1 mps 755 mmHg 92%
    03:00 +8°C° 0 mm 1 mps 755 mmHg 93%
    04:00 +7°C° 0 mm 1 mps 756 mmHg 94%
    05:00 +9°C° 0 mm 1 mps 756 mmHg 88%
    06:00 +10°C° 0 mm 1 mps 756 mmHg 83%
    07:00 +12°C° 0 mm 1 mps 756 mmHg 78%
    08:00 +13°C° 0 mm 1 mps 756 mmHg 72%
    09:00 +15°C° 0 mm 1 mps 756 mmHg 65%
    10:00 +18°C° 0 mm 1 mps 756 mmHg 58%
    11:00 +18°C° 0 mm 1 mps 756 mmHg 56%
    12:00 +19°C° 0 mm 1 mps 755 mmHg 54%
    13:00 +19°C° 0 mm 2 mps 755 mmHg 53%
    14:00 +19°C° 0 mm 2 mps 755 mmHg 54%
    15:00 +19°C° 0 mm 3 mps 754 mmHg 55%
    16:00 +19°C° 0 mm 3 mps 754 mmHg 56%
    17:00 +18°C° 0 mm 3 mps 754 mmHg 61%
    18:00 +17°C° 0 mm 3 mps 753 mmHg 67%
    19:00 +14°C° 0 mm 3 mps 753 mmHg 72%
    20:00 +14°C° 0.1 mm 4 mps 753 mmHg 73%
    21:00 +13°C° 0.1 mm 4 mps 753 mmHg 74%
    22:00 +13°C° 0.1 mm 4 mps 753 mmHg 75%
    23:00 +13°C° 0.1 mm 4 mps 752 mmHg 76%

    30 April, Monday

    Time Temperature Precipitation Wind Pressure Humidity
    00:00 +13°C° 0.1 mm 4 mps 752 mmHg 78%
    01:00 +12°C° 0.1 mm 5 mps 751 mmHg 79%
    02:00 +12°C° 0.2 mm 5 mps 751 mmHg 81%
    03:00 +12°C° 0.2 mm 5 mps 751 mmHg 84%
    04:00 +12°C° 0.2 mm 5 mps 751 mmHg 86%
    05:00 +13°C° 0.2 mm 5 mps 750 mmHg 86%
    06:00 +13°C° 0.2 mm 5 mps 750 mmHg 86%
    07:00 +14°C° 0.2 mm 6 mps 750 mmHg 85%
    08:00 +16°C° 0 mm 6 mps 749 mmHg 81%
    09:00 +19°C° 0 mm 6 mps 749 mmHg 76%
    10:00 +21°C° 0 mm 6 mps 749 mmHg 72%
    11:00 +23°C° 0 mm 6 mps 748 mmHg 66%
    12:00 +24°C° 0 mm 6 mps 748 mmHg 61%
    13:00 +27°C° 0 mm 6 mps 747 mmHg 55%
    14:00 +27°C° 0 mm 5 mps 747 mmHg 53%
    15:00 +28°C° 0 mm 5 mps 746 mmHg 52%
    16:00 +28°C° 0 mm 4 mps 746 mmHg 50%
    17:00 +27°C° 0 mm 4 mps 746 mmHg 57%
    18:00 +25°C° 0 mm 3 mps 746 mmHg 63%
    19:00 +22°C° 0 mm 3 mps 745 mmHg 70%
    20:00 +21°C° 0.4 mm 3 mps 746 mmHg 72%
    21:00 +20°C° 0.4 mm 3 mps 746 mmHg 74%
    22:00 +20°C° 0.4 mm 3 mps 746 mmHg 75%
    23:00 +19°C° 0 mm 3 mps 746 mmHg 79%
    Show more